Year,Month,Day,Hour,Minute,Value (Times are PST for temperature in C)
2014,08,26,00,00,18.10
2014,08,26,00,01,18.00
2014,08,26,00,02,18.00
2014,08,26,00,03,18.00
2014,08,26,00,04,17.90
2014,08,26,00,05,17.90
2014,08,26,00,06,17.80
2014,08,26,00,07,17.80
2014,08,26,00,08,17.80
2014,08,26,00,09,17.70
2014,08,26,00,10,17.70
2014,08,26,00,11,17.70
2014,08,26,00,12,17.70
2014,08,26,00,13,17.70
2014,08,26,00,14,17.70
2014,08,26,00,15,17.70
2014,08,26,00,16,17.60
2014,08,26,00,17,17.60
2014,08,26,00,18,17.60
2014,08,26,00,19,17.60
2014,08,26,00,20,17.50
2014,08,26,00,21,17.50
2014,08,26,00,22,17.50
2014,08,26,00,23,17.50
2014,08,26,00,24,17.40
2014,08,26,00,25,17.40
2014,08,26,00,26,17.40
2014,08,26,00,27,17.40
2014,08,26,00,28,17.30
2014,08,26,00,29,17.30
2014,08,26,00,30,17.20
2014,08,26,00,31,17.20
2014,08,26,00,32,17.20
2014,08,26,00,33,17.20
2014,08,26,00,34,17.10
2014,08,26,00,35,17.10
2014,08,26,00,36,17.00
2014,08,26,00,37,17.00
2014,08,26,00,38,16.90
2014,08,26,00,39,16.90
2014,08,26,00,40,16.80
2014,08,26,00,41,16.80
2014,08,26,00,42,16.80
2014,08,26,00,43,16.80
2014,08,26,00,44,16.80
2014,08,26,00,45,16.80
2014,08,26,00,46,16.80
2014,08,26,00,47,16.80
2014,08,26,00,48,16.80
2014,08,26,00,49,16.80
2014,08,26,00,50,16.80
2014,08,26,00,51,16.80
2014,08,26,00,52,16.80
2014,08,26,00,53,16.80
2014,08,26,00,54,16.80
2014,08,26,00,55,16.80
2014,08,26,00,56,16.80
2014,08,26,00,57,16.80
2014,08,26,00,58,16.80
2014,08,26,00,59,16.80
2014,08,26,01,00,16.80
2014,08,26,01,01,16.80
2014,08,26,01,02,16.80
2014,08,26,01,03,16.80
2014,08,26,01,04,16.80
2014,08,26,01,05,16.80
2014,08,26,01,06,16.80
2014,08,26,01,07,16.80
2014,08,26,01,08,16.80
2014,08,26,01,09,16.90
2014,08,26,01,10,16.90
2014,08,26,01,11,16.90
2014,08,26,01,12,16.90
2014,08,26,01,13,16.90
2014,08,26,01,14,16.90
2014,08,26,01,15,16.90
2014,08,26,01,16,16.90
2014,08,26,01,17,16.90
2014,08,26,01,18,16.90
2014,08,26,01,19,16.90
2014,08,26,01,20,16.90
2014,08,26,01,21,16.80
2014,08,26,01,22,16.80
2014,08,26,01,23,16.80
2014,08,26,01,24,16.80
2014,08,26,01,25,16.80
2014,08,26,01,26,16.80
2014,08,26,01,27,16.80
2014,08,26,01,28,16.80
2014,08,26,01,29,16.80
2014,08,26,01,30,16.80
2014,08,26,01,31,16.70
2014,08,26,01,32,16.70
2014,08,26,01,33,16.70
2014,08,26,01,34,16.70
2014,08,26,01,35,16.70
2014,08,26,01,36,16.70
2014,08,26,01,37,16.70
2014,08,26,01,38,16.70
2014,08,26,01,39,16.70
2014,08,26,01,40,16.70
2014,08,26,01,41,16.70
2014,08,26,01,42,16.70
2014,08,26,01,43,16.70
2014,08,26,01,44,16.70
2014,08,26,01,45,16.60
2014,08,26,01,46,16.60
2014,08,26,01,47,16.60
2014,08,26,01,48,16.60
2014,08,26,01,49,16.60
2014,08,26,01,50,16.60
2014,08,26,01,51,16.70
2014,08,26,01,52,16.70
2014,08,26,01,53,16.70
2014,08,26,01,54,16.70
2014,08,26,01,55,16.70
2014,08,26,01,56,16.70
2014,08,26,01,57,16.70
2014,08,26,01,58,16.70
2014,08,26,01,59,16.60
2014,08,26,02,00,16.60
2014,08,26,02,01,16.60
2014,08,26,02,02,16.60
2014,08,26,02,03,16.60
2014,08,26,02,04,16.60
2014,08,26,02,05,16.60
2014,08,26,02,06,16.70
2014,08,26,02,07,16.70
2014,08,26,02,08,16.70
2014,08,26,02,09,16.70
2014,08,26,02,10,16.70
2014,08,26,02,11,16.70
2014,08,26,02,12,16.70
2014,08,26,02,13,16.70
2014,08,26,02,14,16.70
2014,08,26,02,15,16.70
2014,08,26,02,16,16.70
2014,08,26,02,17,16.70
2014,08,26,02,18,16.60
2014,08,26,02,19,16.60
2014,08,26,02,20,16.60
2014,08,26,02,21,16.60
2014,08,26,02,22,16.60
2014,08,26,02,23,16.60
2014,08,26,02,24,16.50
2014,08,26,02,25,16.50
2014,08,26,02,26,16.50
2014,08,26,02,27,16.50
2014,08,26,02,28,16.50
2014,08,26,02,29,16.50
2014,08,26,02,30,16.40
2014,08,26,02,31,16.40
2014,08,26,02,32,16.40
2014,08,26,02,33,16.40
2014,08,26,02,34,16.40
2014,08,26,02,35,16.40
2014,08,26,02,36,16.40
2014,08,26,02,37,16.40
2014,08,26,02,38,16.30
2014,08,26,02,39,16.30
2014,08,26,02,40,16.30
2014,08,26,02,41,16.30
2014,08,26,02,42,16.30
2014,08,26,02,43,16.30
2014,08,26,02,44,16.20
2014,08,26,02,45,16.20
2014,08,26,02,46,16.20
2014,08,26,02,47,16.20
2014,08,26,02,48,16.20
2014,08,26,02,49,16.20
2014,08,26,02,50,16.20
2014,08,26,02,51,16.20
2014,08,26,02,52,16.20
2014,08,26,02,53,16.20
2014,08,26,02,54,16.20
2014,08,26,02,55,16.20
2014,08,26,02,56,16.20
2014,08,26,02,57,16.20
2014,08,26,02,58,16.20
2014,08,26,02,59,16.20
2014,08,26,03,00,16.20
2014,08,26,03,01,16.20
2014,08,26,03,02,16.10
2014,08,26,03,03,16.10
2014,08,26,03,04,16.10
2014,08,26,03,05,16.10
2014,08,26,03,06,16.10
2014,08,26,03,07,16.10
2014,08,26,03,08,16.10
2014,08,26,03,09,16.10
2014,08,26,03,10,16.10
2014,08,26,03,11,16.10
2014,08,26,03,12,16.10
2014,08,26,03,13,16.10
2014,08,26,03,14,16.10
2014,08,26,03,15,16.10
2014,08,26,03,16,16.10
2014,08,26,03,17,16.10
2014,08,26,03,18,16.10
2014,08,26,03,19,16.10
2014,08,26,03,20,16.10
2014,08,26,03,21,16.10
2014,08,26,03,22,16.10
2014,08,26,03,23,16.10
2014,08,26,03,24,16.10
2014,08,26,03,25,16.00
2014,08,26,03,26,16.00
2014,08,26,03,27,16.00
2014,08,26,03,28,16.00
2014,08,26,03,29,16.00
2014,08,26,03,30,16.00
2014,08,26,03,31,16.00
2014,08,26,03,32,16.00
2014,08,26,03,33,16.00
2014,08,26,03,34,15.90
2014,08,26,03,35,15.90
2014,08,26,03,36,16.00
2014,08,26,03,37,16.00
2014,08,26,03,38,16.00
2014,08,26,03,39,16.10
2014,08,26,03,40,16.10
2014,08,26,03,41,16.10
2014,08,26,03,42,16.10
2014,08,26,03,43,16.10
2014,08,26,03,44,16.10
2014,08,26,03,45,16.10
2014,08,26,03,46,16.10
2014,08,26,03,47,16.10
2014,08,26,03,48,16.10
2014,08,26,03,49,16.10
2014,08,26,03,50,16.20
2014,08,26,03,51,16.20
2014,08,26,03,52,16.20
2014,08,26,03,53,16.20
2014,08,26,03,54,16.20
2014,08,26,03,55,16.20
2014,08,26,03,56,16.20
2014,08,26,03,57,16.20
2014,08,26,03,58,16.20
2014,08,26,03,59,16.20
2014,08,26,04,00,16.20
2014,08,26,04,01,16.20
2014,08,26,04,02,16.20
2014,08,26,04,03,16.20
2014,08,26,04,04,16.20
2014,08,26,04,05,16.20
2014,08,26,04,06,16.20
2014,08,26,04,07,16.20
2014,08,26,04,08,16.20
2014,08,26,04,09,16.20
2014,08,26,04,10,16.20
2014,08,26,04,11,16.20
2014,08,26,04,12,16.20
2014,08,26,04,13,16.20
2014,08,26,04,14,16.20
2014,08,26,04,15,16.20
2014,08,26,04,16,16.20
2014,08,26,04,17,16.20
2014,08,26,04,18,16.30
2014,08,26,04,19,16.30
2014,08,26,04,20,16.30
2014,08,26,04,21,16.30
2014,08,26,04,22,16.30
2014,08,26,04,23,16.30
2014,08,26,04,24,16.30
2014,08,26,04,25,16.30
2014,08,26,04,26,16.30
2014,08,26,04,27,16.30
2014,08,26,04,28,16.30
2014,08,26,04,29,16.40
2014,08,26,04,30,16.40
2014,08,26,04,31,16.40
2014,08,26,04,32,16.40
2014,08,26,04,33,16.40
2014,08,26,04,34,16.40
2014,08,26,04,35,16.40
2014,08,26,04,36,16.40
2014,08,26,04,37,16.40
2014,08,26,04,38,16.40
2014,08,26,04,39,16.40
2014,08,26,04,40,16.40
2014,08,26,04,41,16.40
2014,08,26,04,42,16.40
2014,08,26,04,43,16.40
2014,08,26,04,44,16.40
2014,08,26,04,45,16.40
2014,08,26,04,46,16.40
2014,08,26,04,47,16.30
2014,08,26,04,48,16.30
2014,08,26,04,49,16.30
2014,08,26,04,50,16.30
2014,08,26,04,51,16.30
2014,08,26,04,52,16.30
2014,08,26,04,53,16.20
2014,08,26,04,54,16.20
2014,08,26,04,55,16.20
2014,08,26,04,56,16.10
2014,08,26,04,57,16.10
2014,08,26,04,58,16.10
2014,08,26,04,59,16.10
2014,08,26,05,00,16.00
2014,08,26,05,01,16.00
2014,08,26,05,02,16.00
2014,08,26,05,03,15.90
2014,08,26,05,04,15.90
2014,08,26,05,05,15.90
2014,08,26,05,06,15.80
2014,08,26,05,07,15.80
2014,08,26,05,08,15.70
2014,08,26,05,09,15.60
2014,08,26,05,10,15.50
2014,08,26,05,11,15.50
2014,08,26,05,12,15.40
2014,08,26,05,13,15.30
2014,08,26,05,14,15.20
2014,08,26,05,15,15.10
2014,08,26,05,16,15.00
2014,08,26,05,17,14.90
2014,08,26,05,18,14.90
2014,08,26,05,19,14.90
2014,08,26,05,20,14.80
2014,08,26,05,21,14.80
2014,08,26,05,22,14.80
2014,08,26,05,23,14.80
2014,08,26,05,24,14.70
2014,08,26,05,25,14.70
2014,08,26,05,26,14.70
2014,08,26,05,27,14.70
2014,08,26,05,28,14.70
2014,08,26,05,29,14.60
2014,08,26,05,30,14.60
2014,08,26,05,31,14.60
2014,08,26,05,32,14.60
2014,08,26,05,33,14.60
2014,08,26,05,34,14.60
2014,08,26,05,35,14.60
2014,08,26,05,36,14.60
2014,08,26,05,37,14.60
2014,08,26,05,38,14.60
2014,08,26,05,39,14.60
2014,08,26,05,40,14.60
2014,08,26,05,41,14.60
2014,08,26,05,42,14.50
2014,08,26,05,43,14.50
2014,08,26,05,44,14.50
2014,08,26,05,45,14.50
2014,08,26,05,46,14.50
2014,08,26,05,47,14.50
2014,08,26,05,48,14.50
2014,08,26,05,49,14.50
2014,08,26,05,50,14.40
2014,08,26,05,51,14.40
2014,08,26,05,52,14.40
2014,08,26,05,53,14.40
2014,08,26,05,54,14.40
2014,08,26,05,55,14.40
2014,08,26,05,56,14.40
2014,08,26,05,57,14.40
2014,08,26,05,58,14.40
2014,08,26,05,59,14.40
2014,08,26,06,00,14.40
2014,08,26,06,01,14.30
2014,08,26,06,02,14.30
2014,08,26,06,03,14.30
2014,08,26,06,04,14.30
2014,08,26,06,05,14.30
2014,08,26,06,06,14.30
2014,08,26,06,07,14.30
2014,08,26,06,08,14.30
2014,08,26,06,09,14.30
2014,08,26,06,10,14.30
2014,08,26,06,11,14.30
2014,08,26,06,12,14.30
2014,08,26,06,13,14.30
2014,08,26,06,14,14.30
2014,08,26,06,15,14.30
2014,08,26,06,16,14.30
2014,08,26,06,17,14.30
2014,08,26,06,18,14.30
2014,08,26,06,19,14.30
2014,08,26,06,20,14.30
2014,08,26,06,21,14.30
2014,08,26,06,22,14.30
2014,08,26,06,23,14.30
2014,08,26,06,24,14.40
2014,08,26,06,25,14.40
2014,08,26,06,26,14.40
2014,08,26,06,27,14.40
2014,08,26,06,28,14.40
2014,08,26,06,29,14.40
2014,08,26,06,30,14.40
2014,08,26,06,31,14.40
2014,08,26,06,32,14.30
2014,08,26,06,33,14.40
2014,08,26,06,34,14.40
2014,08,26,06,35,14.40
2014,08,26,06,36,14.40
2014,08,26,06,37,14.40
2014,08,26,06,38,14.40
2014,08,26,06,39,14.40
2014,08,26,06,40,14.40
2014,08,26,06,41,14.40
2014,08,26,06,42,14.40
2014,08,26,06,43,14.40
2014,08,26,06,44,14.40
2014,08,26,06,45,14.40
2014,08,26,06,46,14.40
2014,08,26,06,47,14.40
2014,08,26,06,48,14.40
2014,08,26,06,49,14.40
2014,08,26,06,50,14.40
2014,08,26,06,51,14.40
2014,08,26,06,52,14.40
2014,08,26,06,53,14.40
2014,08,26,06,54,14.40
2014,08,26,06,55,14.40
2014,08,26,06,56,14.40
2014,08,26,06,57,14.40
2014,08,26,06,58,14.40
2014,08,26,06,59,14.40
2014,08,26,07,00,14.40
2014,08,26,07,01,14.40
2014,08,26,07,02,14.40
2014,08,26,07,03,14.40
2014,08,26,07,04,14.40
2014,08,26,07,05,14.40
2014,08,26,07,06,14.40
2014,08,26,07,07,14.40
2014,08,26,07,08,14.40
2014,08,26,07,09,14.40
2014,08,26,07,10,14.50
2014,08,26,07,11,14.50
2014,08,26,07,12,14.50
2014,08,26,07,13,14.50
2014,08,26,07,14,14.50
2014,08,26,07,15,14.60
2014,08,26,07,16,14.60
2014,08,26,07,17,14.60
2014,08,26,07,18,14.60
2014,08,26,07,19,14.60
2014,08,26,07,20,14.60
2014,08,26,07,21,14.60
2014,08,26,07,22,14.70
2014,08,26,07,23,14.70
2014,08,26,07,24,14.70
2014,08,26,07,25,14.80
2014,08,26,07,26,14.80
2014,08,26,07,27,14.80
2014,08,26,07,28,14.90
2014,08,26,07,29,14.90
2014,08,26,07,30,15.00
2014,08,26,07,31,15.00
2014,08,26,07,32,15.10
2014,08,26,07,33,15.20
2014,08,26,07,34,15.20
2014,08,26,07,35,15.30
2014,08,26,07,36,15.30
2014,08,26,07,37,15.40
2014,08,26,07,38,15.50
2014,08,26,07,39,15.60
2014,08,26,07,40,15.70
2014,08,26,07,41,15.80
2014,08,26,07,42,15.80
2014,08,26,07,43,15.90
2014,08,26,07,44,16.00
2014,08,26,07,45,16.10
2014,08,26,07,46,16.20
2014,08,26,07,47,16.20
2014,08,26,07,48,16.30
2014,08,26,07,49,16.30
2014,08,26,07,50,16.30
2014,08,26,07,51,16.40
2014,08,26,07,52,16.40
2014,08,26,07,53,16.50
2014,08,26,07,54,16.50
2014,08,26,07,55,16.60
2014,08,26,07,56,16.60
2014,08,26,07,57,16.60
2014,08,26,07,58,16.60
2014,08,26,07,59,16.70
2014,08,26,08,00,16.70
2014,08,26,08,01,16.80
2014,08,26,08,02,16.80
2014,08,26,08,03,16.80
2014,08,26,08,04,16.90
2014,08,26,08,05,16.90
2014,08,26,08,06,17.00
2014,08,26,08,07,17.00
2014,08,26,08,08,17.10
2014,08,26,08,09,17.10
2014,08,26,08,10,17.20
2014,08,26,08,11,17.20
2014,08,26,08,12,17.30
2014,08,26,08,13,17.40
2014,08,26,08,14,17.50
2014,08,26,08,15,17.60
2014,08,26,08,16,17.70
2014,08,26,08,17,17.80
2014,08,26,08,18,17.90
2014,08,26,08,19,17.90
2014,08,26,08,20,18.00
2014,08,26,08,21,18.10
2014,08,26,08,22,18.10
2014,08,26,08,23,18.20
2014,08,26,08,24,18.30
2014,08,26,08,25,18.30
2014,08,26,08,26,18.40
2014,08,26,08,27,18.50
2014,08,26,08,28,18.50
2014,08,26,08,29,18.60
2014,08,26,08,30,18.60
2014,08,26,08,31,18.70
2014,08,26,08,32,18.70
2014,08,26,08,33,18.80
2014,08,26,08,34,18.80
2014,08,26,08,35,18.80
2014,08,26,08,36,18.90
2014,08,26,08,37,18.90
2014,08,26,08,38,19.00
2014,08,26,08,39,19.10
2014,08,26,08,40,19.10
2014,08,26,08,41,19.10
2014,08,26,08,42,19.10
2014,08,26,08,43,19.20
2014,08,26,08,44,19.20
2014,08,26,08,45,19.20
2014,08,26,08,46,19.30
2014,08,26,08,47,19.30
2014,08,26,08,48,19.30
2014,08,26,08,49,19.30
2014,08,26,08,50,19.30
2014,08,26,08,51,19.40
2014,08,26,08,52,19.40
2014,08,26,08,53,19.40
2014,08,26,08,54,19.40
2014,08,26,08,55,19.50
2014,08,26,08,56,19.50
2014,08,26,08,57,19.60
2014,08,26,08,58,19.60
2014,08,26,08,59,19.60
2014,08,26,09,00,19.60
2014,08,26,09,01,19.60
2014,08,26,09,02,19.60
2014,08,26,09,03,19.70
2014,08,26,09,04,19.70
2014,08,26,09,05,19.80
2014,08,26,09,06,19.80
2014,08,26,09,07,19.90
2014,08,26,09,08,19.90
2014,08,26,09,09,19.90
2014,08,26,09,10,20.00
2014,08,26,09,11,20.00
2014,08,26,09,12,20.10
2014,08,26,09,13,20.10
2014,08,26,09,14,20.10
2014,08,26,09,15,20.10
2014,08,26,09,16,20.10
2014,08,26,09,17,20.10
2014,08,26,09,18,20.10
2014,08,26,09,19,20.10
2014,08,26,09,20,20.10
2014,08,26,09,21,20.10
2014,08,26,09,22,20.10
2014,08,26,09,23,20.20
2014,08,26,09,24,20.20
2014,08,26,09,25,20.30
2014,08,26,09,26,20.30
2014,08,26,09,27,20.40
2014,08,26,09,28,20.40
2014,08,26,09,29,20.40
2014,08,26,09,30,20.50
2014,08,26,09,31,20.50
2014,08,26,09,32,20.60
2014,08,26,09,33,20.60
2014,08,26,09,34,20.70
2014,08,26,09,35,20.70
2014,08,26,09,36,20.80
2014,08,26,09,37,20.80
2014,08,26,09,38,20.80
2014,08,26,09,39,20.90
2014,08,26,09,40,20.90
2014,08,26,09,41,21.00
2014,08,26,09,42,21.00
2014,08,26,09,43,21.10
2014,08,26,09,44,21.10
2014,08,26,09,45,21.10
2014,08,26,09,46,21.10
2014,08,26,09,47,21.10
2014,08,26,09,48,21.10
2014,08,26,09,49,21.10
2014,08,26,09,50,21.20
2014,08,26,09,51,21.20
2014,08,26,09,52,21.20
2014,08,26,09,53,21.30
2014,08,26,09,54,21.30
2014,08,26,09,55,21.40
2014,08,26,09,56,21.40
2014,08,26,09,57,21.50
2014,08,26,09,58,21.60
2014,08,26,09,59,21.60
2014,08,26,10,00,21.70
2014,08,26,10,01,21.70
2014,08,26,10,02,21.80
2014,08,26,10,03,21.80
2014,08,26,10,04,21.90
2014,08,26,10,05,21.90
2014,08,26,10,06,22.00
2014,08,26,10,07,22.10
2014,08,26,10,08,22.10
2014,08,26,10,09,22.20
2014,08,26,10,10,22.30
2014,08,26,10,11,22.40
2014,08,26,10,12,22.40
2014,08,26,10,13,22.50
2014,08,26,10,14,22.60
2014,08,26,10,15,22.70
2014,08,26,10,16,22.70
2014,08,26,10,17,22.80
2014,08,26,10,18,22.90
2014,08,26,10,19,22.90
2014,08,26,10,20,23.00
2014,08,26,10,21,23.10
2014,08,26,10,22,23.10
2014,08,26,10,23,23.10
2014,08,26,10,24,23.10
2014,08,26,10,25,23.10
2014,08,26,10,26,23.00
2014,08,26,10,27,22.90
2014,08,26,10,28,22.80
2014,08,26,10,29,22.80
2014,08,26,10,30,22.80
2014,08,26,10,31,22.80
2014,08,26,10,32,22.80
2014,08,26,10,33,22.80
2014,08,26,10,34,22.70
2014,08,26,10,35,22.70
2014,08,26,10,36,22.70
2014,08,26,10,37,22.60
2014,08,26,10,38,22.60
2014,08,26,10,39,22.60
2014,08,26,10,40,22.60
2014,08,26,10,41,22.60
2014,08,26,10,42,22.60
2014,08,26,10,43,22.60
2014,08,26,10,44,22.60
2014,08,26,10,45,22.60
2014,08,26,10,46,22.50
2014,08,26,10,47,22.50
2014,08,26,10,48,22.50
2014,08,26,10,49,22.50
2014,08,26,10,50,22.50
2014,08,26,10,51,22.60
2014,08,26,10,52,22.60
2014,08,26,10,53,22.60
2014,08,26,10,54,22.60
2014,08,26,10,55,22.60
2014,08,26,10,56,22.60
2014,08,26,10,57,22.60
2014,08,26,10,58,22.60
2014,08,26,10,59,22.70
2014,08,26,11,00,22.70
2014,08,26,11,01,22.70
2014,08,26,11,02,22.70
2014,08,26,11,03,22.70
2014,08,26,11,04,22.70
2014,08,26,11,05,22.70
2014,08,26,11,06,22.80
2014,08,26,11,07,22.80
2014,08,26,11,08,22.90
2014,08,26,11,09,22.90
2014,08,26,11,10,22.90
2014,08,26,11,11,22.90
2014,08,26,11,12,22.90
2014,08,26,11,13,22.90
2014,08,26,11,14,23.00
2014,08,26,11,15,23.10
2014,08,26,11,16,23.10
2014,08,26,11,17,23.20
2014,08,26,11,18,23.20
2014,08,26,11,19,23.20
2014,08,26,11,20,23.20
2014,08,26,11,21,23.20
2014,08,26,11,22,23.20
2014,08,26,11,23,23.10
2014,08,26,11,24,23.10
2014,08,26,11,25,23.10
2014,08,26,11,26,23.10
2014,08,26,11,27,23.10
2014,08,26,11,28,23.10
2014,08,26,11,29,23.10
2014,08,26,11,30,23.10
2014,08,26,11,31,23.10
2014,08,26,11,32,23.10
2014,08,26,11,33,23.10
2014,08,26,11,34,23.10
2014,08,26,11,35,23.20
2014,08,26,11,36,23.20
2014,08,26,11,37,23.20
2014,08,26,11,38,23.20
2014,08,26,11,39,23.20
2014,08,26,11,40,23.20
2014,08,26,11,41,23.20
2014,08,26,11,42,23.30
2014,08,26,11,43,23.30
2014,08,26,11,44,23.30
2014,08,26,11,45,23.40
2014,08,26,11,46,23.40
2014,08,26,11,47,23.40
2014,08,26,11,48,23.50
2014,08,26,11,49,23.50
2014,08,26,11,50,23.60
2014,08,26,11,51,23.60
2014,08,26,11,52,23.60
2014,08,26,11,53,23.60
2014,08,26,11,54,23.70
2014,08,26,11,55,23.70
2014,08,26,11,56,23.80
2014,08,26,11,57,23.90
2014,08,26,11,58,23.90
2014,08,26,11,59,23.90
2014,08,26,12,00,23.90
2014,08,26,12,01,23.90
2014,08,26,12,02,23.80
2014,08,26,12,03,23.80
2014,08,26,12,04,23.80
2014,08,26,12,05,23.80
2014,08,26,12,06,23.80
2014,08,26,12,07,23.70
2014,08,26,12,08,23.70
2014,08,26,12,09,23.70
2014,08,26,12,10,23.60
2014,08,26,12,11,23.50
2014,08,26,12,12,23.40
2014,08,26,12,13,23.30
2014,08,26,12,14,23.20
2014,08,26,12,15,23.10
2014,08,26,12,16,23.00
2014,08,26,12,17,22.80
2014,08,26,12,18,22.60
2014,08,26,12,19,22.60
2014,08,26,12,20,22.60
2014,08,26,12,21,22.60
2014,08,26,12,22,22.60
2014,08,26,12,23,22.70
2014,08,26,12,24,22.70
2014,08,26,12,25,22.60
2014,08,26,12,26,22.50
2014,08,26,12,27,22.50
2014,08,26,12,28,22.40
2014,08,26,12,29,22.30
2014,08,26,12,30,22.20
2014,08,26,12,31,22.30
2014,08,26,12,32,22.30
2014,08,26,12,33,22.30
2014,08,26,12,34,22.30
2014,08,26,12,35,22.30
2014,08,26,12,36,22.30
2014,08,26,12,37,22.30
2014,08,26,12,38,22.30
2014,08,26,12,39,22.40
2014,08,26,12,40,22.40
2014,08,26,12,41,22.40
2014,08,26,12,42,22.30
2014,08,26,12,43,22.30
2014,08,26,12,44,22.30
2014,08,26,12,45,22.20
2014,08,26,12,46,22.20
2014,08,26,12,47,22.10
2014,08,26,12,48,22.10
2014,08,26,12,49,22.10
2014,08,26,12,50,22.20
2014,08,26,12,51,22.20
2014,08,26,12,52,22.30
2014,08,26,12,53,22.40
2014,08,26,12,54,22.50
2014,08,26,12,55,22.60
2014,08,26,12,56,22.60
2014,08,26,12,57,22.70
2014,08,26,12,58,22.60
2014,08,26,12,59,22.60
2014,08,26,13,00,22.60
2014,08,26,13,01,22.60
2014,08,26,13,02,22.50
2014,08,26,13,03,22.40
2014,08,26,13,04,22.40
2014,08,26,13,05,22.40
2014,08,26,13,06,22.40
2014,08,26,13,07,22.40
2014,08,26,13,08,22.40
2014,08,26,13,09,22.30
2014,08,26,13,10,22.30
2014,08,26,13,11,22.40
2014,08,26,13,12,22.50
2014,08,26,13,13,22.70
2014,08,26,13,14,22.70
2014,08,26,13,15,22.60
2014,08,26,13,16,22.60
2014,08,26,13,17,22.50
2014,08,26,13,18,22.50
2014,08,26,13,19,22.50
2014,08,26,13,20,22.60
2014,08,26,13,21,22.70
2014,08,26,13,22,22.70
2014,08,26,13,23,22.70
2014,08,26,13,24,22.80
2014,08,26,13,25,22.80
2014,08,26,13,26,22.90
2014,08,26,13,27,23.00
2014,08,26,13,28,23.10
2014,08,26,13,29,23.20
2014,08,26,13,30,23.20
2014,08,26,13,31,23.20
2014,08,26,13,32,23.30
2014,08,26,13,33,23.30
2014,08,26,13,34,23.20
2014,08,26,13,35,23.20
2014,08,26,13,36,23.20
2014,08,26,13,37,23.10
2014,08,26,13,38,23.10
2014,08,26,13,39,23.10
2014,08,26,13,40,23.10
2014,08,26,13,41,23.10
2014,08,26,13,42,23.00
2014,08,26,13,43,23.00
2014,08,26,13,44,22.80
2014,08,26,13,45,22.70
2014,08,26,13,46,22.70
2014,08,26,13,47,22.70
2014,08,26,13,48,22.80
2014,08,26,13,49,22.90
2014,08,26,13,50,23.00
2014,08,26,13,51,23.00
2014,08,26,13,52,23.00
2014,08,26,13,53,23.00
2014,08,26,13,54,23.00
2014,08,26,13,55,22.90
2014,08,26,13,56,22.90
2014,08,26,13,57,23.00
2014,08,26,13,58,23.10
2014,08,26,13,59,23.20
2014,08,26,14,00,23.30
2014,08,26,14,01,23.30
2014,08,26,14,02,23.20
2014,08,26,14,03,23.20
2014,08,26,14,04,23.20
2014,08,26,14,05,23.20
2014,08,26,14,06,23.10
2014,08,26,14,07,23.10
2014,08,26,14,08,23.00
2014,08,26,14,09,22.90
2014,08,26,14,10,22.90
2014,08,26,14,11,22.90
2014,08,26,14,12,22.90
2014,08,26,14,13,22.90
2014,08,26,14,14,22.90
2014,08,26,14,15,23.00
2014,08,26,14,16,23.10
2014,08,26,14,17,23.20
2014,08,26,14,18,23.30
2014,08,26,14,19,23.30
2014,08,26,14,20,23.30
2014,08,26,14,21,23.30
2014,08,26,14,22,23.40
2014,08,26,14,23,23.40
2014,08,26,14,24,23.40
2014,08,26,14,25,23.30
2014,08,26,14,26,23.30
2014,08,26,14,27,23.30
2014,08,26,14,28,23.30
2014,08,26,14,29,23.30
2014,08,26,14,30,23.30
2014,08,26,14,31,23.30
2014,08,26,14,32,23.40
2014,08,26,14,33,23.40
2014,08,26,14,34,23.40
2014,08,26,14,35,23.50
2014,08,26,14,36,23.50
2014,08,26,14,37,23.40
2014,08,26,14,38,23.50
2014,08,26,14,39,23.50
2014,08,26,14,40,23.50
2014,08,26,14,41,23.50
2014,08,26,14,42,23.60
2014,08,26,14,43,23.60
2014,08,26,14,44,23.60
2014,08,26,14,45,23.60
2014,08,26,14,46,23.60
2014,08,26,14,47,23.50
2014,08,26,14,48,23.50
2014,08,26,14,49,23.50
2014,08,26,14,50,23.60
2014,08,26,14,51,23.70
2014,08,26,14,52,23.60
2014,08,26,14,53,23.60
2014,08,26,14,54,23.50
2014,08,26,14,55,23.60
2014,08,26,14,56,23.60
2014,08,26,14,57,23.60
2014,08,26,14,58,23.60
2014,08,26,14,59,23.60
2014,08,26,15,00,23.60
2014,08,26,15,01,23.50
2014,08,26,15,02,23.50
2014,08,26,15,03,23.40
2014,08,26,15,04,23.30
2014,08,26,15,05,23.30
2014,08,26,15,06,23.30
2014,08,26,15,07,23.30
2014,08,26,15,08,23.30
2014,08,26,15,09,23.30
2014,08,26,15,10,23.30
2014,08,26,15,11,23.30
2014,08,26,15,12,23.30
2014,08,26,15,13,23.30
2014,08,26,15,14,23.30
2014,08,26,15,15,23.30
2014,08,26,15,16,23.30
2014,08,26,15,17,23.30
2014,08,26,15,18,23.30
2014,08,26,15,19,23.30
2014,08,26,15,20,23.40
2014,08,26,15,21,23.30
2014,08,26,15,22,23.30
2014,08,26,15,23,23.30
2014,08,26,15,24,23.30
2014,08,26,15,25,23.40
2014,08,26,15,26,23.40
2014,08,26,15,27,23.30
2014,08,26,15,28,23.40
2014,08,26,15,29,23.40
2014,08,26,15,30,23.40
2014,08,26,15,31,23.50
2014,08,26,15,32,23.50
2014,08,26,15,33,23.60
2014,08,26,15,34,23.70
2014,08,26,15,35,23.70
2014,08,26,15,36,23.70
2014,08,26,15,37,23.70
2014,08,26,15,38,23.70
2014,08,26,15,39,23.60
2014,08,26,15,40,23.60
2014,08,26,15,41,23.60
2014,08,26,15,42,23.60
2014,08,26,15,43,23.60
2014,08,26,15,44,23.60
2014,08,26,15,45,23.70
2014,08,26,15,46,23.70
2014,08,26,15,47,23.70
2014,08,26,15,48,23.70
2014,08,26,15,49,23.60
2014,08,26,15,50,23.50
2014,08,26,15,51,23.50
2014,08,26,15,52,23.50
2014,08,26,15,53,23.60
2014,08,26,15,54,23.70
2014,08,26,15,55,23.70
2014,08,26,15,56,23.70
2014,08,26,15,57,23.70
2014,08,26,15,58,23.70
2014,08,26,15,59,23.70
2014,08,26,16,00,23.70
2014,08,26,16,01,23.70
2014,08,26,16,02,23.70
2014,08,26,16,03,23.70
2014,08,26,16,04,23.70
2014,08,26,16,05,23.70
2014,08,26,16,06,23.70
2014,08,26,16,07,23.60
2014,08,26,16,08,23.70
2014,08,26,16,09,23.70
2014,08,26,16,10,23.60
2014,08,26,16,11,23.60
2014,08,26,16,12,23.60
2014,08,26,16,13,23.60
2014,08,26,16,14,23.50
2014,08,26,16,15,23.50
2014,08,26,16,16,23.40
2014,08,26,16,17,23.40
2014,08,26,16,18,23.40
2014,08,26,16,19,23.40
2014,08,26,16,20,23.40
2014,08,26,16,21,23.50
2014,08,26,16,22,23.50
2014,08,26,16,23,23.60
2014,08,26,16,24,23.60
2014,08,26,16,25,23.60
2014,08,26,16,26,23.60
2014,08,26,16,27,23.60
2014,08,26,16,28,23.60
2014,08,26,16,29,23.50
2014,08,26,16,30,23.50
2014,08,26,16,31,23.40
2014,08,26,16,32,23.40
2014,08,26,16,33,23.30
2014,08,26,16,34,23.30
2014,08,26,16,35,23.30
2014,08,26,16,36,23.20
2014,08,26,16,37,23.20
2014,08,26,16,38,23.20
2014,08,26,16,39,23.10
2014,08,26,16,40,23.10
2014,08,26,16,41,23.20
2014,08,26,16,42,23.20
2014,08,26,16,43,23.20
2014,08,26,16,44,23.10
2014,08,26,16,45,23.10
2014,08,26,16,46,23.20
2014,08,26,16,47,23.20
2014,08,26,16,48,23.20
2014,08,26,16,49,23.10
2014,08,26,16,50,23.10
2014,08,26,16,51,23.10
2014,08,26,16,52,23.10
2014,08,26,16,53,23.10
2014,08,26,16,54,23.10
2014,08,26,16,55,23.10
2014,08,26,16,56,23.10
2014,08,26,16,57,23.10
2014,08,26,16,58,23.00
2014,08,26,16,59,23.00
2014,08,26,17,00,22.90
2014,08,26,17,01,22.80
2014,08,26,17,02,22.80
2014,08,26,17,03,22.70
2014,08,26,17,04,22.70
2014,08,26,17,05,22.70
2014,08,26,17,06,22.70
2014,08,26,17,07,22.70
2014,08,26,17,08,22.60
2014,08,26,17,09,22.60
2014,08,26,17,10,22.50
2014,08,26,17,11,22.50
2014,08,26,17,12,22.40
2014,08,26,17,13,22.40
2014,08,26,17,14,22.50
2014,08,26,17,15,22.50
2014,08,26,17,16,22.60
2014,08,26,17,17,22.60
2014,08,26,17,18,22.60
2014,08,26,17,19,22.50